Tracking 18987 objects as of 25-Feb-2018
HD Live streaming from Space Station
objects crossing your sky now

NOAA 16 DEB

Track NOAA 16 DEB now!
10-day predictions


NORAD ID: 42362
Int'l Code: 2000-055RE
Perigee: 856.5 km
Apogee: 1,045.8 km
Inclination: 98.9 °
Period: 103.9 minutes
Semi major axis: 7322 km
RCS: Unknown
Launch date: September 21, 2000
Source: United States (US)
Launch site: AIR FORCE WESTERN TEST RANGE (AFWTR)

Note: This is SATELLITE DEBRIS
aabbcc
Your satellite tracking list
Your tracking list is empty




NASA's NSSDC Master Catalog

Two Line Element Set (TLE):
1 42362U 00055RE  18044.89657680 +.00000939 +00000-0 +80475-3 0  9991
2 42362 098.9038 084.7468 0129261 247.7644 110.9760 13.85616658103667
Source of the keplerian elements: AFSPC